EW5562 Weather Reports


time (UTC)temp
C
wind
direction
speed
KPH
gust
KPH
rain 1hr
cm
rain 24hr
cm
rain mn
cm
humidity
%
barometer
mb
20260906083309 30 149 4.8 6.4 0.00 0.00 0.00 35 1014.6
20260906080309 28 183 0.0 6.4 0.00 0.00 0.00 42 1014.8
20260906073309 27 24 1.6 6.4 0.00 0.00 0.00 45 1014.7
20260906071809 25 159 3.2 4.8 0.00 0.00 0.00 49 1014.4
20260906063307 23 133 1.6 6.4 0.00 0.00 0.00 54 1014.2
20260906060320 21 144 1.6 3.2 0.00 0.00 0.00 59 1013.9
20260906053306 20 326 0.0 3.2 0.00 0.00 0.00 63 1013.9
20260906050306 18 324 0.0 6.4 0.00 0.00 0.00 68 1014.0
20260906043306 18 324 1.6 8.0 0.00 0.00 0.00 68 1013.8
20260906040306 17 269 4.8 4.8 0.00 0.00 0.00 69 1013.5
20260906033305 18 262 1.6 6.4 0.00 0.00 0.00 67 1013.3
20260906030304 17 279 0.0 4.8 0.00 0.00 0.00 70 1013.3
20260906023303 18 279 3.2 4.8 0.00 0.00 0.00 66 1013.0
20260906020303 18 178 0.0 0.0 0.00 0.00 0.00 66 1012.8
20260906015032 18 189 1.6 8.0 0.00 0.00 0.00 68 1012.7
20260906012032 20 299 3.2 6.4 0.00 0.00 0.00 61 1012.9
20260906005031 20 269 0.0 0.0 0.00 0.00 0.00 59 1013.0
20260906002044 19 265 0.0 0.0 0.00 0.00 0.00 65 1013.0
20260905235029 20 262 0.0 4.8 0.00 0.00 0.00 62 1013.3
20260905232029 21 266 1.6 9.7 0.00 0.00 0.00 58 1013.5
20260905230530 21 283 4.8 11.3 0.00 0.00 0.00 57 1013.6
20260905222028 21 285 4.8 9.7 0.00 0.00 0.00 56 1013.6
20260905215028 21 334 3.2 8.0 0.00 0.00 0.00 56 1013.6
20260905212027 22 266 1.6 8.0 0.00 0.00 0.00 52 1013.8
20260905205027 22 281 6.4 9.7 0.00 0.00 0.00 53 1013.7
20260905202029 23 276 6.4 8.0 0.00 0.00 0.00 51 1013.8
20260905195026 23 337 8.0 8.0 0.00 0.00 0.00 50 1013.8
20260905192025 23 343 0.0 9.7 0.00 0.00 0.00 49 1014.0
20260905185025 24 214 6.4 8.0 0.00 0.00 0.00 47 1013.9
20260905182025 25 228 3.2 8.0 0.00 0.00 0.00 45 1013.7
20260905175024 26 37 1.6 6.4 0.00 0.00 0.00 42 1013.3
20260905172024 27 103 4.8 9.7 0.00 0.00 0.00 39 1012.9
20260905165022 29 83 4.8 11.3 0.00 0.00 0.00 37 1012.8
20260905162023 30 93 4.8 11.3 0.00 0.00 0.00 35 1012.8
20260905155022 31 63 8.0 22.5 0.00 0.00 0.00 33 1012.9
20260905152022 31 73 12.9 19.3 0.00 0.00 0.00 32 1012.7
20260905145022 32 11 19.3 22.5 0.00 0.00 0.00 31 1012.7
20260905142021 32 10 19.3 27.4 0.00 0.00 0.00 31 1012.7
20260905135021 32 30 24.1 30.6 0.00 0.00 0.00 31 1012.7
20260905132020 32 30 11.3 24.1 0.00 0.00 0.00 31 1013.1
20260905125033 32 44 20.9 27.4 0.00 0.00 0.00 31 1013.3
20260905122033 32 62 17.7 29.0 0.00 0.00 0.00 30 1013.7
20260905115018 32 41 8.0 32.2 0.00 0.00 0.00 32 1014.0
20260905112019 32 13 16.1 29.0 0.00 0.00 0.00 33 1014.1
20260905110518 32 24 16.1 27.4 0.00 0.00 0.00 33 1014.1
20260905102018 31 61 12.9 24.1 0.00 0.00 0.00 34 1014.2
20260905095017 31 52 8.0 24.1 0.00 0.00 0.00 33 1014.6
20260905092017 31 10 17.7 27.4 0.00 0.00 0.00 33 1014.7
20260905085016 31 353 12.9 25.7 0.00 0.00 0.00 34 1014.7